Regional Weather Roundup
Issued by NWS

Home | Current Version | Previous Version | Graphics & Text | Print | Product List | Glossary On
Versions: 1 2 3 4 5 6 7 8 9 10 11 12 13 14 15 16 17 18 19 20 21 22 23 24 25 26 27 28 29 30 31 32 33 34 35 36 37 38 39 40 41 42 43 44 45 46 47 48 49 50
000
ASUS43 KLOT 170303
RWRIL

ILLINOIS REGIONAL WEATHER ROUNDUP
NATIONAL WEATHER SERVICE CHICAGO/ROMEOVILLE IL
1000 PM CDT WED AUG 16 2017

NOTE: "FAIR" INDICATES FEW OR NO CLOUDS BELOW 12,000 FEET WITH NO
SIGNIFICANT WEATHER AND/OR OBSTRUCTIONS TO VISIBILITY.

* THESE STATIONS ARE NOT UNDER NWS QUALITY CONTROL. THEY ALSO MAY NOT
  REPORT WEATHER SUCH AS PRECIPITATION OR FOG.

ILZ001-002-007-009-015-016-024-170400-
NORTHWEST ILLINOIS

CITY           SKY/WX    TMP DP  RH WIND       PRES   REMARKS
MOLINE         PTCLDY    78  73  84 S13       29.78F HX  81
STERLING*      CLOUDY    74  72  93 VRB3      29.80F
SAVANNA*       CLOUDY    76  73  91 S10       29.78F
$$

ILZ003-004-008-010-011-017-018-170400-
NORTH CENTRAL ILLINOIS

CITY           SKY/WX    TMP DP  RH WIND       PRES   REMARKS
ROCKFORD       MOCLDY    76  73  91 SE13      29.82F
FREEPORT*      CLOUDY    74  73  97 S10       29.82F
ROCHELLE*      LGT RAIN  75  73  96 SE9       29.83F
PERU*          CLOUDY    75  73  91 S13       29.82F
$$

ILZ005-006-012>014-019>023-170400-
NORTHEAST ILLINOIS

CITY           SKY/WX    TMP DP  RH WIND       PRES   REMARKS
CHICAGO-OHARE  CLOUDY    78  73  84 S12       29.85F HX  81
CHICAGO-MIDWAY CLOUDY    80  73  79 S10G21    29.86F HX  84
AURORA         LGT RAIN  77  75  93 SE8       29.84F
LANSING*       LGT RAIN  78  71  80 S9        29.88F HX  80
JOLIET*        CLOUDY    78  75  90 SE7       29.85F HX  82
WAUKEGAN       CLOUDY    74  73  97 SE6       29.85F
DUPAGE AIRPORT CLOUDY    76  75  97 SE8       29.84F FOG
WHEELING       CLOUDY    76  76 100 SE7       29.87F
MORRIS*        CLOUDY    77  73  88 S9        29.84F
NORTHERLY ISL    N/A     78  71  79 SE7         N/A  HX  80
$$

LMZ740>746-170400-
SOUTHERN LAKE MICHIGAN

STATION/POSITION SKY/WX   TEMP    WIND        PRES    VSBY  WAVE
                          AIR SEA DIR/SP/G                  HT/PER
                          (F)     (DEG/KT/KT) (MB)    (MI)  (FT/S)
SOUTHERN BUOY              75 73   90/  8/ 10 1011.9          1
WILMETTE HARBOR            75 73  130/  6/  8   N/A           1/ 4
HARRISON CRIB              79     180/ 12/ 12   N/A
CALUMET HARBOR             81     170/  7/ 10 1011.3F
BURNS HARBOR               81     180/  9/ 15 1012.5F
MICHIGAN CITY              80     160/  6/  8   N/A
MICHIGAN CITY 6N           78 75  160/  6/ 10   N/A           1
ST. JOSEPH                 78 75  180/  8/ 10 1012.0F         1
$$

ILZ025>027-034>036-040-047-049-050-058-095>099-170400-
WEST-CENTRAL ILLINOIS

CITY           SKY/WX    TMP DP  RH WIND       PRES   REMARKS
QUINCY         LGT RAIN  72  69  90 S9G18     29.84F
GALESBURG*     CLOUDY    74  70  89 S12G17    29.83S
MACOMB*        PTCLDY    74  68  82 S6        29.85F
JACKSONVILLE*  CLOUDY    71  68  90 SW8       29.88S
PITTSFIELD*    CLOUDY    73  69  89 S12       29.88S
$$

ILZ028>032-037-038-041>044-048-051>054-059>061-170400-
CENTRAL ILLINOIS

CITY           SKY/WX    TMP DP  RH WIND       PRES   REMARKS
PONTIAC        CLOUDY    77  77  99 CALM      29.87F
BLOOMINGTON    CLOUDY    74  70  87 S9        29.89F
DECATUR        CLOUDY    75  70  84 SW8       29.90S
PEORIA         CLOUDY    75  72  90 S10       29.85F
LACON*         CLOUDY    77  73  86 S10       29.83F
LINCOLN*       CLOUDY    73  72  97 S5        29.87F
SPRINGFIELD    CLOUDY    75  71  87 SW10      29.88F
TAYLORVILLE    CLOUDY    72  72  98 S7        29.88F
$$

ILZ033-039-045-046-055>057-062-063-170400-
EAST-CENTRAL ILLINOIS

CITY           SKY/WX    TMP DP  RH WIND       PRES   REMARKS
CHAMPAIGN      CLOUDY    75  70  84 W10       29.93R
RANTOUL*       CLOUDY    79  76  91 SW8       29.92R HX  83
MATTOON        PTCLDY    72  72 100 S9        29.90R
PARIS*         DRIZZLE   75  72  90 S10       29.93R
$$

ILZ079-100>102-170400-
SOUTHWEST ILLINOIS

CITY           SKY/WX    TMP DP  RH WIND       PRES   REMARKS
ALTON          MOCLDY    70  70 100 S10       29.91F
BELLEVILLE     CLOUDY    71  69  93 S5        29.91F
CAHOKIA*       CLOUDY    72  68  87 S5        29.90F
SPARTA*        CLOUDY    71  69  92 S5        29.95F
$$

ILZ064>066-069>071-074>076-080>082-084>086-088>090-092>094-170400-
SOUTH-CENTRAL ILLINOIS

CITY           SKY/WX    TMP DP  RH WIND       PRES   REMARKS
CARBONDALE     LGT RAIN  72  72 100 SE5       29.95F
CAIRO*         MOCLDY    77  74  93 N6        29.97R
EFFINGHAM*     PTCLDY    73  73 100 SE6       29.93R
MARION         LGT RAIN  75  73  94 CALM      29.97F
MT. VERNON     LGT RAIN  73  72  96 S8        29.95R
CENTRALIA*     LGT RAIN  73  73  98 S6        29.93S
SALEM*         LGT RAIN  74  71  91 S7        29.93S
METROPOLIS*    PTCLDY    78  75  90 CALM      29.98R HX  82
$$

ILZ067-068-072-073-078-083-087-091-170400-
SOUTHEAST ILLINOIS

CITY           SKY/WX    TMP DP  RH WIND       PRES   REMARKS
LAWRENCEVILLE  CLOUDY    75  73  93 SE8       29.94F
FLORA*         CLOUDY    74  73  94 SW8       29.93R
FAIRFIELD*     CLOUDY    72  72 100 CALM      29.94R
HARRISBURG*    MOCLDY    76  72  87 W12       29.98R
ROBINSON*      CLOUDY    72  72  98 S6        29.93F
CARMI*         PTCLDY    74  73  94 S5        29.95S
$$

ABBREVIATIONS USED IN REMARKS
   TC - TEMPERATURE IN CELSIUS
  WCI - WIND CHILL INDEX
   HX - HEAT INDEX
  VSB - VISIBILITY
$$





USA.gov is the U.S. government's official web portal to all federal, state and local government web resources and services.